Temp
12 13 12 12 12 12 12 12 13 12 12 12 12 11 11 11 10 10 9 9 8 7 8 8 8 8 9 9 9 9 9 10 10 10 10 10 11 11 11 11 13 12 14 16 17 18 16
12 12 12 12 12 12 12 13 13 13 13 12 12 11 11 11 11 10 10 9 9 8 8 8 8 9 9 8 9 9 9 9 9 10 9 9 10 11 11 11 12 14 15 15 16 16 15
12 12 12 12 12 12 13 13 13 13 13 12 12 11 11 11 11 11 10 9 9 9 9 9 8 9 9 9 9 10 9 9 9 10 10 10 10 11 11 11 13 13 14 14 14 15 15
12 12 12 12 12 13 13 13 13 13 12 12 12 11 11 11 11 11 10 10 10 9 9 9 9 9 9 10 10 10 9 9 9 9 10 10 11 11 11 12 13 13 12 12 14 13 16
12 12 12 12 12 13 13 13 13 12 12 12 11 11 11 11 11 11 11 10 10 10 9 9 9 9 10 10 10 10 10 9 10 10 10 11 11 11 12 10 9 10 10 12 14 14 14
12 13 12 12 12 13 13 13 13 13 12 11 11 11 11 11 11 11 11 11 11 11 10 10 10 9 10 10 10 10 10 10 10 10 11 11 11 8 7 8 9 11 12 13 13 13 14
12 12 13 12 12 12 13 13 13 13 12 11 11 11 11 11 11 11 11 12 11 11 11 10 10 10 10 10 10 10 10 10 10 10 9 10 7 8 9 9 10 10 12 12 13 14 14
12 12 12 13 12 12 13 13 13 13 12 12 11 11 11 11 11 11 11 10 9 9 9 11 11 11 11 10 10 11 10 10 10 9 10 8 8 10 10 10 10 10 11 11 12 13 13
12 12 12 13 12 13 13 13 13 13 13 12 11 11 11 11 10 10 10 9 9 8 8 11 11 11 11 11 11 11 11 11 10 10 10 9 11 11 11 11 12 12 11 12 13 14 14
12 12 12 13 12 13 13 13 13 13 13 12 12 11 11 11 10 10 9 9 9 9 5 10 11 12 12 11 11 11 11 11 10 10 11 10 11 11 12 12 11 12 12 12 12 11 10
11 12 12 12 12 13 13 13 14 14 13 13 12 11 11 11 10 10 10 9 9 9 4 11 12 12 12 11 11 11 11 11 10 10 10 10 10 10 11 12 11 11 11 12 13 12 11
12 12 12 12 12 13 13 13 14 13 13 13 12 11 11 11 10 10 10 10 9 5 5 9 12 11 11 11 11 11 11 11 11 10 10 9 10 10 10 10 11 11 12 9 7 7 7
11 11 12 12 12 12 13 13 13 14 13 12 12 12 11 11 10 10 10 9 5 6 10 10 10 11 10 11 11 11 11 10 9 7 7 9 10 10 10 10 11 11 8 5 7 6 8
11 11 11 12 12 12 13 13 13 13 14 13 12 12 11 11 10 10 10 7 7 10 9 10 10 9 10 12 11 11 10 9 10 10 6 6 7 10 10 10 10 11 9 6 10 8 8
11 11 11 11 12 12 12 13 13 13 13 13 13 13 12 12 11 10 9 4 8 9 10 9 9 10 10 12 12 11 10 9 10 10 9 8 9 9 10 9 10 11 9 10 8 8 8
10 10 11 11 11 11 12 12 13 13 13 13 13 13 12 12 11 10 7 8 8 10 9 9 9 10 10 10 10 10 10 10 10 10 9 10 8 9 9 10 9 10 9 9 5 10 10
10 10 10 11 11 11 11 12 12 13 13 13 12 12 12 12 11 11 6 7 9 10 10 9 9 9 10 10 9 10 10 10 8 9 9 9 8 8 9 8 8 8 9 9 8 7 9
10 10 9 10 10 11 11 11 12 12 13 13 12 10 12 12 10 6 8 9 10 10 10 9 9 9 10 10 10 11 11 10 9 8 9 8 7 6 8 9 9 9 9 9 7 10 7
9 9 9 9 10 10 10 11 11 12 12 12 12 11 11 11 9 7 9 10 9 9 9 9 9 10 10 9 9 10 11 10 9 9 9 8 7 5 8 8 8 9 8 9 7 6 8
8 9 9 9 9 9 10 10 11 11 11 12 11 7 10 10 10 9 10 10 10 9 9 9 9 9 9 9 9 9 10 10 9 8 8 8 6 6 6 9 9 9 8 8 8 4 8
7 8 8 8 8 9 9 10 10 10 11 11 11 9 9 7 9 9 10 9 10 10 8 9 9 8 9 9 9 9 10 10 8 8 7 7 6 5 5 5 6 7 7 8 5 8 9
6 6 6 7 8 8 8 9 9 10 10 10 10 9 9 9 9 9 8 9 9 11 9 8 8 9 7 8 9 10 9 8 9 7 7 6 7 7 6 7 6 6 5 6 6 7 6
3 3 4 4 5 6 6 6 8 8 9 9 8 8 9 8 7 7 7 8 9 10 11 11 8 8 8 8 10 10 9 9 8 8 6 6 5 6 7 7 6 7 7 6 6 6 8
3 2 3 3 2 3 4 5 6 6 7 7 8 7 8 6 5 6 10 9 9 9 10 11 10 8 10 10 9 9 7 6 5 5 7 6 6 5 6 6 7 9 8 8 7 8 6
3 2 2 2 2 2 2 2 3 3 4 5 6 6 6 3 6 6 8 8 10 10 8 9 10 10 9 9 6 6 6 8 6 4 4 4 5 5 6 5 7 10 9 9 9 9 7
4 4 3 3 2 2 2 2 2 2 2 3 3 4 4 4 5 8 8 10 7 5 5 8 8 8 8 6 5 6 7 7 8 5 4 3 3 4 4 6 7 10 9 8 8 7 7
4 4 4 4 3 3 2 2 2 2 2 2 2 2 3 2 6 7 6 7 9 7 5 6 7 6 7 3 4 4 4 6 7 6 3 3 2 3 3 4 5 7 8 8 9 9 7
4 4 4 4 4 3 3 3 3 3 2 2 2 2 2 2 3 5 6 7 8 8 6 7 6 5 2 4 3 4 3 5 6 6 4 5 3 2 2 3 4 8 7 8 8 8 8
3 3 3 3 3 4 4 3 3 3 3 2 2 3 2 2 2 4 4 6 6 5 6 7 8 7 6 3 2 2 4 2 5 5 4 6 7 5 5 5 7 8 10 10 9 9 8
Height
1559 1557 1555 1553 1551 1548 1545 1543 1541 1539 1538 1537 1537 1536 1535 1534 1534 1532 1528 1525 1520 1517 1515 1514 1512 1511 1511 1511 1511 1509 1507 1506 1503 1503 1504 1505 1505 1505 1505 1504 1503 1504 1501 1501 1500 1500 1501
1558 1557 1555 1553 1551 1548 1545 1542 1540 1538 1537 1537 1536 1536 1534 1534 1533 1531 1529 1526 1522 1518 1517 1515 1514 1513 1512 1513 1511 1509 1507 1505 1504 1504 1504 1506 1506 1505 1505 1504 1503 1501 1501 1501 1501 1500 1501
1558 1557 1556 1554 1551 1549 1545 1542 1540 1539 1537 1536 1536 1535 1534 1533 1532 1531 1529 1527 1524 1522 1520 1518 1516 1514 1514 1515 1512 1510 1508 1507 1506 1505 1505 1506 1506 1506 1505 1502 1501 1500 1502 1502 1501 1501 1502
1558 1557 1556 1554 1552 1549 1546 1543 1541 1539 1538 1537 1535 1534 1533 1532 1531 1530 1528 1526 1525 1523 1521 1520 1517 1515 1514 1513 1512 1510 1509 1508 1507 1506 1506 1506 1505 1505 1505 1502 1499 1499 1503 1511 1500 1500 1500
1559 1557 1556 1554 1552 1549 1546 1543 1541 1540 1538 1537 1535 1534 1532 1531 1531 1530 1529 1526 1525 1524 1522 1520 1519 1516 1516 1514 1512 1511 1509 1509 1508 1507 1506 1505 1505 1504 1504 1504 1507 1506 1513 1508 1504 1499 1499
1559 1557 1556 1555 1553 1550 1547 1544 1542 1540 1539 1537 1535 1533 1531 1530 1530 1529 1528 1526 1525 1524 1522 1519 1519 1520 1517 1517 1513 1512 1510 1509 1508 1507 1506 1506 1505 1507 1508 1510 1518 1509 1507 1505 1505 1502 1500
1559 1557 1556 1555 1553 1550 1548 1544 1542 1540 1539 1537 1535 1532 1530 1530 1530 1529 1529 1527 1527 1526 1523 1523 1522 1521 1519 1517 1514 1513 1511 1510 1509 1508 1509 1507 1511 1513 1508 1508 1508 1509 1506 1508 1503 1497 1500
1558 1557 1555 1555 1553 1550 1548 1545 1542 1540 1539 1538 1535 1533 1531 1531 1530 1530 1529 1528 1530 1531 1526 1523 1522 1520 1519 1518 1515 1513 1512 1512 1510 1511 1508 1511 1513 1506 1505 1504 1506 1507 1508 1507 1501 1496 1500
1557 1557 1555 1554 1553 1551 1548 1545 1542 1540 1539 1538 1536 1534 1533 1532 1531 1531 1529 1530 1529 1530 1529 1524 1522 1520 1519 1519 1516 1514 1514 1512 1511 1510 1509 1511 1506 1502 1503 1504 1503 1503 1507 1504 1503 1497 1497
1557 1556 1555 1554 1552 1551 1549 1546 1543 1540 1539 1538 1536 1535 1534 1533 1534 1531 1531 1530 1530 1530 1535 1528 1523 1522 1520 1517 1517 1515 1514 1515 1513 1512 1509 1510 1505 1504 1503 1504 1505 1505 1501 1500 1499 1505 1515
1556 1555 1554 1553 1552 1550 1548 1546 1544 1540 1539 1538 1537 1535 1534 1532 1532 1531 1531 1529 1529 1530 1563 1526 1523 1521 1519 1520 1518 1516 1515 1514 1514 1514 1515 1513 1508 1507 1505 1503 1503 1505 1501 1498 1496 1503 1506
1554 1554 1554 1552 1551 1550 1548 1546 1544 1541 1539 1538 1536 1535 1534 1533 1531 1531 1529 1529 1530 1543 1563 1531 1522 1521 1520 1518 1517 1515 1515 1515 1513 1513 1511 1510 1507 1507 1505 1503 1502 1501 1500 1503 1509 1514 1529
1554 1553 1553 1552 1551 1550 1548 1546 1544 1542 1540 1538 1537 1535 1533 1533 1533 1531 1530 1531 1543 1553 1534 1531 1527 1522 1522 1518 1517 1516 1514 1516 1517 1524 1523 1511 1507 1505 1504 1504 1502 1502 1512 1536 1531 1538 1526
1551 1552 1552 1551 1550 1549 1548 1546 1544 1542 1540 1538 1536 1535 1533 1532 1531 1530 1530 1533 1548 1537 1535 1528 1525 1523 1522 1516 1516 1515 1516 1518 1512 1515 1525 1525 1525 1507 1505 1505 1505 1504 1510 1530 1520 1530 1520
1550 1550 1550 1550 1549 1548 1547 1545 1544 1542 1539 1537 1536 1535 1534 1531 1530 1530 1532 1549 1544 1537 1535 1534 1527 1525 1524 1517 1517 1516 1516 1518 1514 1512 1519 1519 1513 1505 1505 1505 1506 1503 1510 1507 1516 1520 1520
1548 1549 1549 1548 1548 1547 1545 1544 1543 1541 1539 1536 1535 1533 1534 1532 1531 1530 1533 1540 1538 1533 1532 1532 1534 1528 1528 1525 1522 1518 1516 1515 1514 1512 1513 1512 1519 1506 1504 1504 1504 1504 1505 1515 1525 1514 1513
1546 1547 1547 1547 1545 1545 1544 1543 1541 1539 1537 1536 1534 1533 1532 1531 1530 1531 1541 1540 1533 1532 1532 1532 1531 1531 1527 1525 1523 1520 1518 1515 1515 1513 1512 1511 1516 1512 1507 1507 1506 1509 1506 1508 1512 1516 1512
1543 1543 1544 1544 1543 1542 1542 1541 1540 1538 1536 1534 1533 1533 1532 1530 1533 1534 1536 1533 1533 1530 1530 1530 1529 1528 1527 1524 1523 1518 1517 1514 1513 1513 1514 1513 1516 1519 1507 1501 1501 1501 1502 1504 1515 1505 1514
1539 1540 1540 1541 1540 1540 1539 1539 1538 1537 1535 1533 1531 1531 1531 1530 1534 1534 1531 1531 1530 1531 1530 1529 1529 1527 1525 1525 1526 1519 1516 1513 1513 1512 1513 1514 1517 1528 1506 1506 1502 1501 1498 1498 1505 1510 1506
1535 1536 1537 1537 1538 1537 1537 1536 1535 1535 1534 1533 1532 1532 1530 1530 1529 1529 1529 1528 1527 1527 1527 1528 1527 1527 1525 1523 1521 1519 1515 1513 1513 1513 1513 1513 1517 1516 1520 1503 1501 1500 1497 1497 1498 1521 1502
1531 1532 1533 1533 1534 1534 1534 1534 1533 1532 1533 1533 1529 1528 1528 1531 1528 1528 1529 1528 1527 1525 1526 1525 1525 1524 1524 1525 1520 1519 1514 1512 1512 1512 1513 1513 1516 1515 1508 1504 1503 1499 1496 1494 1504 1489 1491
1528 1529 1529 1529 1529 1530 1530 1530 1530 1530 1530 1530 1530 1528 1526 1526 1524 1525 1526 1525 1524 1521 1522 1523 1524 1518 1521 1523 1517 1515 1513 1514 1511 1513 1512 1513 1512 1508 1507 1495 1497 1497 1492 1491 1490 1487 1488
1525 1526 1526 1525 1525 1526 1527 1526 1526 1527 1527 1527 1527 1527 1526 1523 1523 1525 1522 1518 1517 1517 1514 1513 1514 1517 1518 1513 1511 1510 1509 1508 1507 1509 1512 1513 1513 1510 1502 1494 1494 1490 1481 1482 1481 1479 1476
1522 1522 1522 1523 1523 1523 1523 1523 1523 1524 1524 1525 1524 1526 1526 1524 1521 1519 1515 1515 1514 1514 1514 1512 1512 1513 1510 1509 1509 1507 1504 1503 1505 1505 1506 1508 1511 1511 1506 1498 1495 1472 1469 1470 1472 1468 1469
1520 1520 1520 1521 1521 1521 1521 1520 1520 1520 1521 1522 1523 1523 1524 1521 1516 1514 1513 1511 1511 1510 1510 1508 1507 1507 1508 1509 1511 1509 1505 1501 1502 1504 1504 1505 1509 1512 1507 1506 1484 1464 1468 1469 1467 1465 1464
1517 1518 1518 1518 1517 1518 1520 1517 1517 1517 1517 1518 1520 1520 1521 1521 1511 1509 1509 1507 1507 1507 1507 1503 1503 1503 1505 1508 1511 1511 1507 1500 1499 1504 1505 1506 1507 1510 1512 1506 1489 1465 1466 1467 1468 1472 1463
1513 1513 1514 1515 1515 1515 1517 1517 1515 1515 1515 1514 1517 1518 1517 1517 1508 1507 1506 1504 1501 1500 1501 1500 1500 1503 1503 1508 1513 1513 1507 1495 1498 1497 1506 1509 1512 1512 1512 1508 1488 1467 1465 1466 1471 1468 1461
1506 1507 1508 1509 1511 1511 1511 1511 1512 1512 1511 1510 1511 1512 1512 1511 1504 1503 1503 1501 1499 1497 1498 1497 1500 1499 1503 1505 1506 1501 1501 1490 1488 1483 1489 1491 1504 1508 1510 1507 1497 1462 1466 1468 1461 1458 1459
1499 1500 1500 1502 1503 1503 1504 1505 1506 1506 1506 1505 1504 1505 1506 1504 1496 1494 1492 1490 1490 1493 1494 1491 1487 1485 1483 1492 1494 1493 1490 1488 1482 1484 1478 1482 1473 1480 1482 1473 1455 1455 1454 1456 1456 1455 1455
Wind_Speed
9 11 11 13 15 16 15 12 11 8 5 4 4 5 6 7 10 15 18 21 21 11 11 11 7 8 6 5 4 11 12 9 8 2 3 3 1 2 1 3 2 4 3 2 7 5 6
9 10 11 13 15 17 15 13 10 7 5 3 3 4 6 6 7 12 14 17 20 15 9 10 7 6 7 4 7 9 7 7 5 4 3 1 4 7 6 4 3 1 11 10 3 5 4
7 9 10 12 14 17 16 13 10 9 7 4 2 4 6 5 5 8 11 12 15 14 12 11 9 5 9 6 7 9 9 5 4 2 2 4 4 6 6 5 3 2 2 0 5 6 5
6 8 10 11 13 16 17 15 11 10 8 6 4 5 6 4 4 6 6 8 10 11 9 11 10 4 3 8 9 11 6 3 0 1 2 1 4 5 4 8 4 5 5 4 4 7 4
5 8 9 11 13 16 17 15 11 9 8 7 7 7 7 4 3 5 6 6 7 10 9 7 9 5 4 8 9 10 5 4 3 3 4 2 2 1 4 2 4 6 3 3 1 7 3
5 7 9 11 13 16 18 17 12 9 8 8 9 10 7 2 2 4 6 6 5 7 13 4 11 4 8 10 10 10 6 3 4 6 1 1 3 3 4 4 4 1 3 1 3 5 2
4 6 8 10 12 15 17 18 13 10 9 11 12 10 5 1 2 3 6 5 5 2 8 4 4 2 8 9 7 8 6 8 5 3 3 3 5 2 5 3 2 4 3 1 3 4 5
3 5 7 9 11 13 16 18 15 11 10 12 13 10 5 3 3 3 5 5 5 4 6 3 5 7 7 9 5 7 8 6 4 3 4 4 1 4 4 4 4 4 2 5 5 5 7
2 4 6 7 10 12 14 16 15 10 9 12 12 9 5 3 3 3 5 5 4 5 2 6 5 5 5 7 5 7 8 6 2 5 3 1 4 6 3 3 1 1 4 3 4 2 1
1 3 5 7 9 10 13 16 16 10 8 11 13 9 5 4 2 3 2 5 4 3 4 6 3 2 5 5 3 5 5 3 4 3 5 4 6 4 2 1 0 0 4 4 4 5 4
1 2 4 6 7 9 11 14 16 11 8 9 12 11 7 5 2 1 3 3 2 1 6 6 4 6 4 2 4 3 4 2 2 4 4 5 4 4 2 2 1 5 3 3 2 3 3
2 1 2 4 6 8 10 12 15 12 8 6 8 11 8 5 3 4 2 1 1 6 3 6 3 4 4 2 2 2 2 3 3 3 2 5 2 2 2 3 2 3 2 6 4 3 2
3 1 1 3 5 7 8 10 13 13 9 5 5 8 8 5 4 3 2 0 5 6 3 7 4 3 3 3 2 1 1 3 1 4 4 4 3 3 2 3 2 2 5 2 3 3 5
4 3 1 2 4 5 7 8 10 11 10 6 5 5 8 6 4 3 2 4 8 2 4 3 3 7 3 1 3 2 3 3 2 2 1 2 7 3 4 2 2 1 5 4 4 3 4
5 4 3 3 3 4 6 7 8 9 10 9 4 1 7 5 4 3 1 5 4 3 2 5 8 3 4 3 1 1 3 2 2 2 2 2 4 2 1 2 1 1 0 2 4 2 2
7 5 5 4 5 5 6 7 8 8 10 9 5 2 5 5 4 3 4 3 4 3 1 1 2 2 3 5 5 1 2 2 2 1 1 2 4 2 2 1 2 2 2 2 2 2 4
8 7 6 6 6 7 6 6 7 8 9 9 4 0 2 5 3 2 3 5 4 4 2 3 1 3 3 3 2 3 3 2 3 5 3 1 1 4 1 4 5 1 2 2 2 4 3
10 9 7 7 7 7 8 7 7 7 8 7 3 1 2 4 2 2 1 3 2 3 4 3 3 4 3 3 4 2 2 4 2 1 3 2 2 4 8 3 3 4 3 4 4 4 3
13 11 10 9 9 9 8 8 7 7 7 7 3 2 2 1 2 1 3 2 3 2 3 2 3 4 0 2 2 3 3 1 2 0 1 2 2 4 7 4 2 4 4 5 2 2 5
13 13 12 11 11 10 9 8 8 7 6 6 2 1 2 2 1 3 1 3 2 4 3 3 3 2 2 3 5 4 3 1 2 1 1 1 1 5 5 4 2 4 3 4 6 2 2
13 14 13 13 12 12 11 10 9 8 7 5 3 3 2 2 3 3 2 2 2 3 5 5 3 5 4 3 3 4 3 3 2 1 0 2 4 4 7 9 6 7 9 7 7 8 9
12 13 13 14 13 13 13 12 11 10 8 5 3 2 2 3 3 4 4 5 7 4 7 4 5 3 6 6 7 5 2 3 4 1 1 1 4 2 5 8 5 6 10 10 9 6 9
11 11 13 12 11 11 10 11 11 10 7 4 4 5 3 3 2 4 5 6 6 5 7 7 9 3 5 12 19 19 15 10 6 2 3 3 2 2 5 3 7 7 6 7 5 5 7
11 12 11 10 9 10 9 9 10 9 7 7 6 4 3 4 3 5 3 7 7 9 5 4 11 6 5 4 9 11 13 14 11 10 11 3 1 2 4 5 2 6 3 5 8 7 8
6 8 11 11 10 10 12 9 7 9 7 6 7 6 5 4 7 7 13 8 12 13 8 10 16 12 9 3 2 5 4 2 1 2 4 5 4 3 2 2 8 3 1 2 1 4 0
13 11 10 10 10 10 12 10 8 9 10 9 8 9 7 3 7 16 5 9 5 4 4 6 8 8 7 3 2 4 5 6 3 1 3 3 2 3 0 2 4 2 2 3 2 4 3
19 17 16 15 13 13 13 12 11 10 12 12 12 7 6 7 16 13 7 4 5 4 3 2 4 6 10 3 4 5 5 5 5 6 5 3 1 5 4 4 8 6 3 1 2 3 1
25 24 23 23 22 21 20 18 16 15 14 16 20 17 14 10 22 25 13 16 21 12 5 5 3 4 2 4 4 5 5 6 3 5 7 9 8 5 2 3 8 8 2 5 5 3 2
24 24 25 26 26 26 26 25 24 21 19 22 27 23 22 25 20 23 23 35 42 31 14 9 8 7 15 3 2 0 4 2 4 4 1 3 7 6 9 8 6 14 11 9 7 5 5
Wind_Direction
40 36 34 25 14 8 7 3 1 345 321 275 267 300 315 323 344 357 4 8 10 22 26 21 40 50 75 68 11 349 339 334 326 266 184 205 245 348 285 213 300 174 270 313 242 243 253
47 35 29 26 19 15 13 10 16 13 360 327 291 314 326 323 347 4 10 22 33 39 36 35 45 50 55 46 357 8 347 1 15 132 137 309 330 329 287 267 156 346 254 250 271 232 218
46 35 31 23 20 17 17 19 22 25 27 15 328 331 334 331 354 14 20 25 32 43 50 42 30 48 52 18 22 359 10 1 9 35 28 52 357 325 316 299 295 216 221 338 221 217 232
44 33 28 24 20 21 21 22 28 32 30 23 10 349 334 331 340 10 12 21 24 26 21 10 18 38 50 26 0 6 351 1 309 325 244 322 323 300 272 307 325 147 91 138 237 156 259
35 37 25 25 21 22 21 23 28 33 31 28 12 350 334 315 311 353 356 339 348 360 2 9 17 26 6 348 354 358 354 19 349 315 291 271 297 279 323 37 24 9 175 168 154 210 136
31 31 26 25 24 23 22 22 24 25 24 15 358 343 332 295 308 332 344 345 343 12 4 3 12 354 2 352 356 8 48 2 336 335 334 355 5 47 26 55 189 57 110 118 197 204 181
29 31 27 32 32 29 24 25 25 25 17 6 356 356 1 113 8 346 342 338 1 16 9 17 9 2 324 351 348 17 7 354 347 342 31 339 56 200 235 215 230 295 322 328 273 205 148
18 31 33 31 36 32 28 24 26 29 22 11 7 15 42 87 42 19 10 49 30 338 325 317 326 321 337 342 338 3 357 7 12 339 315 18 287 246 260 283 273 252 271 283 275 230 181
12 24 38 31 35 31 30 26 27 32 33 21 19 24 54 57 41 43 47 38 359 336 304 319 316 311 332 336 338 342 351 348 323 340 332 213 278 324 166 282 296 218 172 235 224 36 130
341 24 34 34 37 32 29 26 24 33 40 29 27 25 41 19 54 40 36 8 345 340 61 303 344 334 334 326 331 324 345 355 338 313 347 293 328 333 278 159 1 251 267 256 226 137 196
312 18 27 33 36 34 28 27 22 31 38 36 30 26 19 23 13 3 335 351 357 355 45 292 303 319 311 319 300 346 302 310 288 292 58 262 320 345 300 246 208 221 283 285 196 135 85
242 359 21 32 32 33 30 28 28 30 37 36 33 26 19 15 15 6 7 34 37 45 304 326 304 318 345 242 264 284 289 271 287 316 305 246 270 208 251 290 243 306 337 33 53 75 38
232 247 359 15 22 23 28 26 29 28 27 26 18 27 23 17 7 6 21 8 38 79 348 306 302 332 323 265 274 230 260 301 212 40 345 326 284 280 231 303 322 89 60 7 5 5 215
222 243 266 338 356 11 13 18 22 20 21 19 11 12 26 15 12 13 355 52 62 293 288 335 314 309 262 297 259 240 307 302 218 55 29 86 333 331 356 259 218 322 141 151 190 191 242
237 249 264 293 326 341 354 359 5 9 13 7 3 358 19 18 12 8 293 51 201 214 268 313 321 338 317 319 251 321 216 249 316 204 170 342 276 276 228 324 349 293 253 186 107 359 40
239 253 268 281 299 318 332 340 345 355 359 358 345 190 13 8 5 14 72 215 217 218 282 333 324 20 316 316 345 340 304 289 326 58 89 267 305 234 285 354 260 264 158 53 10 201 250
242 252 261 274 284 296 311 320 333 338 347 346 341 285 355 1 351 25 114 227 242 234 232 178 228 290 283 281 264 300 307 338 9 317 316 193 154 288 350 195 192 354 235 149 146 158 201
240 248 258 265 275 284 295 306 317 329 336 339 322 338 307 355 44 46 141 201 266 241 225 250 209 221 258 306 302 280 269 225 337 299 322 333 175 262 233 282 203 182 220 179 134 234 219
241 246 252 258 265 274 282 296 305 314 329 335 304 271 256 321 127 284 262 255 224 220 241 222 250 219 194 270 309 242 290 239 273 48 194 342 298 331 338 360 330 238 208 173 127 83 215
243 248 255 262 267 270 273 278 286 298 316 326 283 1 232 250 211 158 199 245 235 212 249 228 256 257 288 255 208 281 285 279 250 263 222 148 201 196 218 233 211 273 262 234 154 138 235
245 252 255 259 263 268 271 272 278 284 291 307 223 239 193 252 252 184 156 290 244 240 218 212 259 218 207 282 277 229 241 300 200 235 241 173 249 205 251 254 245 247 245 221 203 225 200
257 262 264 268 269 267 270 270 270 273 275 267 267 227 209 265 235 180 191 233 204 225 164 231 210 196 193 214 213 246 207 212 253 178 229 192 275 303 284 274 231 259 250 234 230 230 257
260 267 275 273 275 272 263 270 270 270 267 238 238 254 263 241 199 132 216 220 221 181 240 222 202 190 226 241 255 265 266 246 226 209 207 191 231 322 261 333 322 288 234 216 212 210 204
253 249 269 285 285 290 287 268 273 275 258 245 231 237 217 265 193 205 234 214 224 215 231 244 218 175 245 258 297 277 264 259 248 240 217 183 171 216 276 327 242 243 191 192 203 246 222
315 293 278 277 289 281 284 283 276 270 268 257 249 233 238 246 238 274 255 242 274 264 241 246 249 244 243 287 355 330 328 322 156 32 185 192 142 273 269 269 296 283 222 154 134 282 309
283 288 292 292 294 299 289 293 297 286 282 272 261 245 233 262 245 248 252 244 232 226 307 228 238 221 193 139 136 214 222 223 244 211 27 71 79 159 345 243 263 266 199 181 193 289 328
266 271 275 279 285 287 279 281 282 286 282 274 274 251 233 257 256 261 236 230 209 188 206 231 193 188 190 154 195 200 229 199 199 191 180 145 156 207 225 258 280 257 234 154 164 236 332
258 264 268 267 266 267 267 268 271 272 277 279 275 263 249 253 262 261 260 251 252 247 204 196 107 211 110 179 182 226 199 221 187 194 183 172 167 199 139 207 278 182 118 186 203 191 252
246 250 254 260 263 265 268 267 265 263 261 262 264 267 261 253 254 264 259 247 246 248 269 223 233 188 206 133 214 239 237 208 196 225 107 229 194 189 185 212 230 194 209 232 247 230 229